Time,TemperatureF,DewpointF,PressureIn,WindDirection,WindDirectionDegrees,WindSpeedMPH,WindSpeedGustMPH,Humidity,HourlyPrecipIn,Conditions,Clouds,dailyrainin,SoftwareType,DateUTC
2013-03-30 00:00:00,35.1,17.4,30.02,SE,136,1.0,5.0,48,0.00,,---,0.03,VWS V14.01,2013-03-30 08:00:00,
2013-03-30 00:05:00,35.1,17.4,30.02,ESE,120,0.0,4.0,48,0.00,,---,0.00,VWS V14.01,2013-03-30 08:05:00,
2013-03-30 00:10:00,35.0,17.3,30.03,SE,124,1.0,4.0,48,0.00,,---,0.00,VWS V14.01,2013-03-30 08:10:00,
2013-03-30 00:14:00,35.0,17.3,30.03,SE,124,2.0,5.0,48,0.00,,---,0.00,VWS V14.01,2013-03-30 08:14:00,
2013-03-30 00:19:00,35.0,17.3,30.03,SE,124,2.0,5.0,48,0.00,,---,0.00,VWS V14.01,2013-03-30 08:19:00,
2013-03-30 00:24:00,34.8,17.6,30.03,SE,127,2.0,5.0,49,0.00,,---,0.00,VWS V14.01,2013-03-30 08:24:00,
2013-03-30 00:29:00,34.7,17.5,30.03,SE,127,0.0,5.0,49,0.00,,---,0.00,VWS V14.01,2013-03-30 08:29:00,
2013-03-30 00:30:00,34.7,17.5,30.03,SE,127,1.0,5.0,49,0.00,,---,0.00,VWS V14.01,2013-03-30 08:30:00,
2013-03-30 00:34:00,34.6,17.4,30.03,SE,127,1.0,2.0,49,0.00,,---,0.00,VWS V14.01,2013-03-30 08:34:00,
2013-03-30 00:39:00,34.6,17.4,30.03,SE,127,0.0,4.0,49,0.00,,---,0.00,VWS V14.01,2013-03-30 08:39:00,
2013-03-30 00:44:00,34.6,17.4,30.03,SE,132,0.0,4.0,49,0.00,,---,0.00,VWS V14.01,2013-03-30 08:44:00,
2013-03-30 00:49:00,34.4,17.2,30.03,SE,133,0.0,4.0,49,0.00,,---,0.00,VWS V14.01,2013-03-30 08:49:00,
2013-03-30 00:54:00,34.4,17.2,30.03,SE,134,0.0,4.0,49,0.00,,---,0.00,VWS V14.01,2013-03-30 08:54:00,
2013-03-30 00:59:00,34.3,17.1,30.04,SE,134,0.0,4.0,49,0.00,,---,0.00,VWS V14.01,2013-03-30 08:59:00,
2013-03-30 01:00:00,34.2,17.0,30.04,SE,134,1.0,4.0,49,0.00,,---,0.00,VWS V14.01,2013-03-30 09:00:00,
2013-03-30 01:04:00,34.2,17.0,30.04,SE,134,0.0,2.0,49,0.00,,---,0.00,VWS V14.01,2013-03-30 09:04:00,
2013-03-30 01:09:00,34.1,17.0,30.04,SE,134,0.0,2.0,49,0.00,,---,0.00,VWS V14.01,2013-03-30 09:09:00,
2013-03-30 01:14:00,34.0,17.3,30.04,SE,134,1.0,2.0,50,0.00,,---,0.00,VWS V14.01,2013-03-30 09:14:00,
2013-03-30 01:19:00,33.9,17.2,30.04,SE,134,0.0,2.0,50,0.00,,---,0.00,VWS V14.01,2013-03-30 09:19:00,
2013-03-30 01:24:00,33.7,17.0,30.04,SE,134,1.0,2.0,50,0.00,,---,0.00,VWS V14.01,2013-03-30 09:24:00,
2013-03-30 01:29:00,33.6,17.0,30.04,SE,134,0.0,2.0,50,0.00,,---,0.00,VWS V14.01,2013-03-30 09:29:00,
2013-03-30 01:30:00,33.5,16.9,30.04,SE,134,0.0,2.0,50,0.00,,---,0.00,VWS V14.01,2013-03-30 09:30:00,
2013-03-30 01:34:00,33.4,16.8,30.04,SE,134,1.0,2.0,50,0.00,,---,0.00,VWS V14.01,2013-03-30 09:34:00,
2013-03-30 01:39:00,33.4,17.2,30.04,SE,134,0.0,2.0,51,0.00,,---,0.00,VWS V14.01,2013-03-30 09:39:00,
2013-03-30 01:44:00,33.2,17.0,30.05,SE,134,0.0,2.0,51,0.00,,---,0.00,VWS V14.01,2013-03-30 09:44:00,
2013-03-30 01:49:00,33.1,17.0,30.05,SE,134,1.0,2.0,51,0.00,,---,0.00,VWS V14.01,2013-03-30 09:49:00,
2013-03-30 01:54:00,32.9,16.8,30.05,SE,134,0.0,2.0,51,0.00,,---,0.00,VWS V14.01,2013-03-30 09:54:00,
2013-03-30 01:59:00,32.8,16.7,30.05,SE,134,1.0,2.0,51,0.00,,---,0.00,VWS V14.01,2013-03-30 09:59:00,
2013-03-30 02:00:00,32.7,16.6,30.05,SE,134,0.0,2.0,51,0.00,,---,0.00,VWS V14.01,2013-03-30 10:00:00,
2013-03-30 02:04:00,32.6,16.9,30.05,SE,134,0.0,1.0,52,0.00,,---,0.00,VWS V14.01,2013-03-30 10:04:00,
2013-03-30 02:09:00,32.3,16.7,30.05,SE,134,0.0,2.0,52,0.00,,---,0.00,VWS V14.01,2013-03-30 10:09:00,
2013-03-30 02:14:00,32.1,16.5,30.06,SE,134,0.0,2.0,52,0.00,,---,0.00,VWS V14.01,2013-03-30 10:14:00,
2013-03-30 02:19:00,31.9,16.7,30.06,SE,134,1.0,2.0,53,0.00,,---,0.00,VWS V14.01,2013-03-30 10:19:00,
2013-03-30 02:24:00,31.5,16.4,30.06,SE,134,1.0,2.0,53,0.00,,---,0.00,VWS V14.01,2013-03-30 10:24:00,
2013-03-30 02:29:00,31.2,16.5,30.06,SE,136,1.0,4.0,54,0.00,,---,0.00,VWS V14.01,2013-03-30 10:29:00,
2013-03-30 02:30:00,31.1,16.4,30.06,SE,130,4.0,4.0,54,0.00,,---,0.00,VWS V14.01,2013-03-30 10:30:00,
2013-03-30 02:34:00,31.0,16.7,30.06,SE,136,2.0,4.0,55,0.00,,---,0.00,VWS V14.01,2013-03-30 10:34:00,
2013-03-30 02:39:00,30.7,16.5,30.06,SE,136,2.0,4.0,55,0.00,,---,0.00,VWS V14.01,2013-03-30 10:39:00,
2013-03-30 02:44:00,30.4,16.6,30.06,SE,136,1.0,5.0,56,0.00,,---,0.00,VWS V14.01,2013-03-30 10:44:00,
2013-03-30 02:49:00,30.3,16.5,30.06,SE,137,1.0,5.0,56,0.00,,---,0.00,VWS V14.01,2013-03-30 10:49:00,
2013-03-30 02:54:00,30.2,16.8,30.06,SE,129,2.0,5.0,57,0.00,,---,0.00,VWS V14.01,2013-03-30 10:54:00,
2013-03-30 02:59:00,30.1,16.7,30.06,SE,129,2.0,5.0,57,0.00,,---,0.00,VWS V14.01,2013-03-30 10:59:00,
2013-03-30 03:00:00,30.1,16.7,30.06,SE,129,2.0,5.0,57,0.00,,---,0.00,VWS V14.01,2013-03-30 11:00:00,
2013-03-30 03:04:00,30.2,17.2,30.06,ESE,114,1.0,4.0,58,0.00,,---,0.00,VWS V14.01,2013-03-30 11:04:00,
2013-03-30 03:09:00,30.3,17.3,30.06,ESE,117,2.0,4.0,58,0.00,,---,0.00,VWS V14.01,2013-03-30 11:09:00,
2013-03-30 03:14:00,30.4,17.4,30.06,ESE,121,2.0,5.0,58,0.00,,---,0.00,VWS V14.01,2013-03-30 11:14:00,
2013-03-30 03:19:00,30.4,17.4,30.07,ESE,121,2.0,5.0,58,0.00,,---,0.00,VWS V14.01,2013-03-30 11:19:00,
2013-03-30 03:24:00,30.3,17.3,30.07,ESE,121,1.0,5.0,58,0.00,,---,0.00,VWS V14.01,2013-03-30 11:24:00,
2013-03-30 03:29:00,29.8,16.8,30.07,ESE,121,0.0,5.0,58,0.00,,---,0.00,VWS V14.01,2013-03-30 11:29:00,
2013-03-30 03:30:00,29.6,17.0,30.07,ESE,121,1.0,5.0,59,0.00,,---,0.00,VWS V14.01,2013-03-30 11:30:00,
2013-03-30 03:34:00,29.4,16.9,30.07,ESE,121,1.0,1.0,59,0.00,,---,0.00,VWS V14.01,2013-03-30 11:34:00,
2013-03-30 03:39:00,29.1,17.0,30.07,ESE,121,2.0,2.0,60,0.00,,---,0.00,VWS V14.01,2013-03-30 11:39:00,
2013-03-30 03:44:00,28.9,16.8,30.07,ESE,121,1.0,2.0,60,0.00,,---,0.00,VWS V14.01,2013-03-30 11:44:00,
2013-03-30 03:49:00,28.8,17.1,30.07,ESE,121,0.0,2.0,61,0.00,,---,0.00,VWS V14.01,2013-03-30 11:49:00,
2013-03-30 03:54:00,28.6,16.9,30.08,ESE,121,0.0,2.0,61,0.00,,---,0.00,VWS V14.01,2013-03-30 11:54:00,
2013-03-30 03:58:00,28.0,16.7,30.08,ESE,121,1.0,2.0,62,0.00,,---,0.00,VWS V14.01,2013-03-30 11:58:00,
2013-03-30 04:00:00,27.7,16.4,30.08,ESE,121,0.0,2.0,62,0.00,,---,0.00,VWS V14.01,2013-03-30 12:00:00,
2013-03-30 04:03:00,27.4,16.5,30.08,ESE,121,0.0,0.0,63,0.00,,---,0.00,VWS V14.01,2013-03-30 12:03:00,
2013-03-30 04:08:00,27.0,16.5,30.08,ESE,121,0.0,1.0,64,0.00,,---,0.00,VWS V14.01,2013-03-30 12:08:00,
2013-03-30 04:13:00,26.7,16.5,30.08,ESE,121,0.0,2.0,65,0.00,,---,0.00,VWS V14.01,2013-03-30 12:13:00,
2013-03-30 04:18:00,27.0,16.5,30.08,ESE,121,0.0,2.0,64,0.00,,---,0.00,VWS V14.01,2013-03-30 12:18:00,
2013-03-30 04:23:00,27.1,16.6,30.08,ESE,121,0.0,2.0,64,0.00,,---,0.00,VWS V14.01,2013-03-30 12:23:00,
2013-03-30 04:28:00,27.0,16.5,30.08,ESE,121,1.0,2.0,64,0.00,,---,0.00,VWS V14.01,2013-03-30 12:28:00,
2013-03-30 04:30:00,26.8,16.3,30.08,ESE,121,0.0,2.0,64,0.00,,---,0.00,VWS V14.01,2013-03-30 12:30:00,
2013-03-30 04:33:00,26.8,16.3,30.09,ESE,121,0.0,1.0,64,0.00,,---,0.00,VWS V14.01,2013-03-30 12:33:00,
2013-03-30 04:38:00,26.7,16.5,30.09,ESE,121,0.0,1.0,65,0.00,,---,0.00,VWS V14.01,2013-03-30 12:38:00,
2013-03-30 04:43:00,26.6,16.4,30.09,ESE,121,0.0,1.0,65,0.00,,---,0.00,VWS V14.01,2013-03-30 12:43:00,
2013-03-30 04:48:00,26.6,16.4,30.10,ESE,121,0.0,1.0,65,0.00,,---,0.00,VWS V14.01,2013-03-30 12:48:00,
2013-03-30 04:53:00,26.3,16.1,30.10,ESE,121,0.0,2.0,65,0.00,,---,0.00,VWS V14.01,2013-03-30 12:53:00,
2013-03-30 04:58:00,26.2,16.8,30.10,ESE,121,0.0,2.0,67,0.00,,---,0.00,VWS V14.01,2013-03-30 12:58:00,
2013-03-30 05:00:00,26.0,16.2,30.10,ESE,121,0.0,2.0,66,0.00,,---,0.00,VWS V14.01,2013-03-30 13:00:00,
2013-03-30 05:03:00,26.0,16.2,30.10,ESE,121,0.0,0.0,66,0.00,,---,0.00,VWS V14.01,2013-03-30 13:03:00,
2013-03-30 05:08:00,25.8,16.0,30.10,ENE,61,0.0,2.0,66,0.00,,---,0.00,VWS V14.01,2013-03-30 13:08:00,
2013-03-30 05:13:00,25.8,16.0,30.11,ENE,61,1.0,2.0,66,0.00,,---,0.00,VWS V14.01,2013-03-30 13:13:00,
2013-03-30 05:18:00,25.8,16.0,30.11,ENE,61,0.0,2.0,66,0.00,,---,0.00,VWS V14.01,2013-03-30 13:18:00,
2013-03-30 05:23:00,25.9,16.1,30.11,ENE,61,0.0,2.0,66,0.00,,---,0.00,VWS V14.01,2013-03-30 13:23:00,
2013-03-30 05:28:00,25.8,16.0,30.11,ENE,61,0.0,2.0,66,0.00,,---,0.00,VWS V14.01,2013-03-30 13:28:00,
2013-03-30 05:30:00,25.9,16.1,30.11,ESE,111,0.0,4.0,66,0.00,,---,0.00,VWS V14.01,2013-03-30 13:30:00,
2013-03-30 05:33:00,25.9,16.1,30.11,East,87,1.0,2.0,66,0.00,,---,0.00,VWS V14.01,2013-03-30 13:33:00,
2013-03-30 05:38:00,25.8,16.4,30.11,East,88,0.0,2.0,67,0.00,,---,0.00,VWS V14.01,2013-03-30 13:38:00,
2013-03-30 05:43:00,25.9,16.1,30.11,East,88,0.0,2.0,66,0.00,,---,0.00,VWS V14.01,2013-03-30 13:43:00,
2013-03-30 05:48:00,25.8,15.7,30.11,East,88,2.0,2.0,65,0.00,,---,0.00,VWS V14.01,2013-03-30 13:48:00,
2013-03-30 05:53:00,25.7,15.9,30.12,East,88,0.0,2.0,66,0.00,,---,0.00,VWS V14.01,2013-03-30 13:53:00,
2013-03-30 05:58:00,25.6,15.8,30.12,East,88,1.0,2.0,66,0.00,,---,0.00,VWS V14.01,2013-03-30 13:58:00,
2013-03-30 06:00:00,25.5,15.7,30.12,East,82,0.0,3.0,66,0.00,,---,0.00,VWS V14.01,2013-03-30 14:00:00,
2013-03-30 06:03:00,25.5,15.7,30.12,East,82,0.0,2.0,66,0.00,,---,0.00,VWS V14.01,2013-03-30 14:03:00,
2013-03-30 06:08:00,25.5,15.4,30.12,ENE,65,1.0,3.0,65,0.00,,---,0.00,VWS V14.01,2013-03-30 14:08:00,
2013-03-30 06:13:00,25.4,15.3,30.12,ENE,70,1.0,3.0,65,0.00,,---,0.00,VWS V14.01,2013-03-30 14:13:00,
2013-03-30 06:18:00,25.4,15.3,30.13,ENE,70,0.0,3.0,65,0.00,,---,0.00,VWS V14.01,2013-03-30 14:18:00,
2013-03-30 06:23:00,25.2,15.4,30.13,ENE,70,1.0,3.0,66,0.00,,---,0.00,VWS V14.01,2013-03-30 14:23:00,
2013-03-30 06:28:00,25.0,15.3,30.13,ENE,70,1.0,3.0,66,0.00,,---,0.00,VWS V14.01,2013-03-30 14:28:00,
2013-03-30 06:30:00,24.8,15.4,30.13,ENE,70,1.0,3.0,67,0.00,,---,0.00,VWS V14.01,2013-03-30 14:30:00,
2013-03-30 06:33:00,24.7,15.0,30.13,ENE,70,1.0,2.0,66,0.00,,---,0.00,VWS V14.01,2013-03-30 14:33:00,
2013-03-30 06:38:00,24.5,14.8,30.13,East,82,0.0,3.0,66,0.00,,---,0.00,VWS V14.01,2013-03-30 14:38:00,
2013-03-30 06:43:00,24.3,14.9,30.13,East,96,1.0,5.0,67,0.00,,---,0.00,VWS V14.01,2013-03-30 14:43:00,
2013-03-30 06:48:00,24.2,15.2,30.13,East,97,2.0,5.0,68,0.00,,---,0.00,VWS V14.01,2013-03-30 14:48:00,
2013-03-30 06:53:00,24.1,15.1,30.14,East,99,4.0,5.0,68,0.00,,---,0.00,VWS V14.01,2013-03-30 14:53:00,
2013-03-30 06:58:00,24.1,15.1,30.14,East,99,2.0,5.0,68,0.00,,---,0.00,VWS V14.01,2013-03-30 14:58:00,
2013-03-30 07:00:00,24.0,15.0,30.14,East,99,2.0,5.0,68,0.00,,---,0.00,VWS V14.01,2013-03-30 15:00:00,
2013-03-30 07:03:00,24.0,15.0,30.14,East,99,4.0,4.0,68,0.00,,---,0.00,VWS V14.01,2013-03-30 15:03:00,
2013-03-30 07:08:00,23.8,14.8,30.14,East,99,1.0,4.0,68,0.00,,---,0.00,VWS V14.01,2013-03-30 15:08:00,
2013-03-30 07:13:00,23.5,14.5,30.14,East,99,2.0,4.0,68,0.00,,---,0.00,VWS V14.01,2013-03-30 15:13:00,
2013-03-30 07:18:00,23.3,14.6,30.14,East,99,4.0,4.0,69,0.00,,---,0.00,VWS V14.01,2013-03-30 15:18:00,
2013-03-30 07:23:00,23.1,14.1,30.14,East,99,2.0,4.0,68,0.00,,---,0.00,VWS V14.01,2013-03-30 15:23:00,
2013-03-30 07:28:00,22.9,14.3,30.15,East,99,2.0,4.0,69,0.00,,---,0.00,VWS V14.01,2013-03-30 15:28:00,
2013-03-30 07:30:00,22.8,13.8,30.15,East,101,1.0,5.0,68,0.00,,---,0.00,VWS V14.01,2013-03-30 15:30:00,
2013-03-30 07:33:00,22.7,14.1,30.15,East,101,4.0,4.0,69,0.00,,---,0.00,VWS V14.01,2013-03-30 15:33:00,
2013-03-30 07:38:00,22.6,14.0,30.15,ESE,102,2.0,4.0,69,0.00,,---,0.00,VWS V14.01,2013-03-30 15:38:00,
2013-03-30 07:43:00,22.4,13.8,30.15,ESE,102,2.0,4.0,69,0.00,,---,0.00,VWS V14.01,2013-03-30 15:43:00,
2013-03-30 07:48:00,22.2,13.6,30.16,ESE,103,2.0,4.0,69,0.00,,---,0.00,VWS V14.01,2013-03-30 15:48:00,
2013-03-30 07:53:00,22.0,13.4,30.16,ESE,103,2.0,4.0,69,0.00,,---,0.00,VWS V14.01,2013-03-30 15:53:00,
2013-03-30 07:58:00,21.8,13.2,30.16,ESE,103,2.0,4.0,69,0.00,,---,0.00,VWS V14.01,2013-03-30 15:58:00,
2013-03-30 08:00:00,21.8,13.2,30.16,ESE,123,2.0,5.0,69,0.00,,---,0.00,VWS V14.01,2013-03-30 16:00:00,
2013-03-30 08:03:00,21.9,13.0,30.16,SE,127,2.0,5.0,68,0.00,,---,0.00,VWS V14.01,2013-03-30 16:03:00,
2013-03-30 08:08:00,21.9,13.0,30.16,ESE,111,2.0,5.0,68,0.00,,---,0.00,VWS V14.01,2013-03-30 16:08:00,
2013-03-30 08:13:00,21.7,12.8,30.17,ESE,111,2.0,5.0,68,0.00,,---,0.00,VWS V14.01,2013-03-30 16:13:00,
2013-03-30 08:18:00,21.4,12.8,30.17,ESE,111,4.0,5.0,69,0.00,,---,0.00,VWS V14.01,2013-03-30 16:18:00,
2013-03-30 08:23:00,21.4,12.5,30.17,ENE,65,3.0,5.0,68,0.00,,---,0.00,VWS V14.01,2013-03-30 16:23:00,
2013-03-30 08:28:00,21.6,13.0,30.17,East,83,2.0,5.0,69,0.00,,---,0.00,VWS V14.01,2013-03-30 16:28:00,
2013-03-30 08:30:00,21.7,13.1,30.17,East,96,4.0,5.0,69,0.00,,---,0.00,VWS V14.01,2013-03-30 16:30:00,
2013-03-30 08:33:00,21.8,12.9,30.17,East,98,2.0,5.0,68,0.00,,---,0.00,VWS V14.01,2013-03-30 16:33:00,
2013-03-30 08:38:00,22.0,13.1,30.17,East,98,4.0,5.0,68,0.00,,---,0.00,VWS V14.01,2013-03-30 16:38:00,
2013-03-30 08:43:00,22.1,13.2,30.17,East,98,1.0,5.0,68,0.00,,---,0.00,VWS V14.01,2013-03-30 16:43:00,
2013-03-30 08:48:00,22.2,13.3,30.17,East,98,2.0,5.0,68,0.00,,---,0.00,VWS V14.01,2013-03-30 16:48:00,
2013-03-30 08:53:00,22.6,13.3,30.18,East,98,2.0,5.0,67,0.00,,---,0.00,VWS V14.01,2013-03-30 16:53:00,
2013-03-30 08:58:00,23.1,13.4,30.18,East,98,2.0,5.0,66,0.00,,---,0.00,VWS V14.01,2013-03-30 16:58:00,
2013-03-30 09:00:00,23.3,13.3,30.18,East,98,1.0,5.0,65,0.00,,---,0.00,VWS V14.01,2013-03-30 17:00:00,
2013-03-30 09:03:00,23.4,13.4,30.18,ESE,107,1.0,5.0,65,0.00,,---,0.00,VWS V14.01,2013-03-30 17:03:00,
2013-03-30 09:08:00,23.1,12.8,30.18,ESE,115,4.0,5.0,64,0.00,,---,0.00,VWS V14.01,2013-03-30 17:08:00,
2013-03-30 09:13:00,23.0,12.6,30.18,East,98,4.0,5.0,64,0.00,,---,0.00,VWS V14.01,2013-03-30 17:13:00,
2013-03-30 09:18:00,23.0,12.6,30.18,ESE,112,4.0,5.0,64,0.00,,---,0.00,VWS V14.01,2013-03-30 17:18:00,
2013-03-30 09:23:00,23.0,12.6,30.18,ESE,106,2.0,5.0,64,0.00,,---,0.00,VWS V14.01,2013-03-30 17:23:00,
2013-03-30 09:28:00,23.1,12.8,30.19,ESE,106,2.0,5.0,64,0.00,,---,0.00,VWS V14.01,2013-03-30 17:28:00,
2013-03-30 09:30:00,22.9,12.6,30.19,East,99,5.0,5.0,64,0.00,,---,0.00,VWS V14.01,2013-03-30 17:30:00,
2013-03-30 09:33:00,22.8,12.5,30.19,East,99,4.0,5.0,64,0.00,,---,0.00,VWS V14.01,2013-03-30 17:33:00,
2013-03-30 09:38:00,22.8,12.8,30.19,ESE,102,2.0,5.0,65,0.00,,---,0.00,VWS V14.01,2013-03-30 17:38:00,
2013-03-30 09:43:00,22.8,12.5,30.19,ESE,110,4.0,6.0,64,0.00,,---,0.00,VWS V14.01,2013-03-30 17:43:00,
2013-03-30 09:48:00,22.7,12.4,30.19,ESE,115,2.0,6.0,64,0.00,,---,0.00,VWS V14.01,2013-03-30 17:48:00,
2013-03-30 09:53:00,22.5,11.8,30.19,East,98,4.0,7.0,63,0.00,,---,0.00,VWS V14.01,2013-03-30 17:53:00,
2013-03-30 09:58:00,22.7,12.0,30.20,ESE,121,5.0,7.0,63,0.00,,---,0.00,VWS V14.01,2013-03-30 17:58:00,
2013-03-30 10:00:00,22.7,12.0,30.20,ESE,121,4.0,7.0,63,0.00,,---,0.00,VWS V14.01,2013-03-30 18:00:00,
2013-03-30 10:03:00,22.9,12.2,30.20,ESE,120,2.0,4.0,63,0.00,,---,0.00,VWS V14.01,2013-03-30 18:03:00,
2013-03-30 10:08:00,23.1,12.0,30.20,ESE,114,4.0,6.0,62,0.00,,---,0.00,VWS V14.01,2013-03-30 18:08:00,
2013-03-30 10:13:00,23.1,11.7,30.20,ESE,113,4.0,6.0,61,0.00,,---,0.00,VWS V14.01,2013-03-30 18:13:00,
2013-03-30 10:18:00,23.2,11.8,30.20,ESE,114,4.0,6.0,61,0.00,,---,0.00,VWS V14.01,2013-03-30 18:18:00,
2013-03-30 10:23:00,23.6,11.8,30.20,ESE,119,2.0,6.0,60,0.00,,---,0.00,VWS V14.01,2013-03-30 18:23:00,
2013-03-30 10:28:00,23.8,11.6,30.21,SE,125,4.0,6.0,59,0.00,,---,0.00,VWS V14.01,2013-03-30 18:28:00,
2013-03-30 10:30:00,23.8,11.2,30.21,SE,127,4.0,6.0,58,0.00,,---,0.00,VWS V14.01,2013-03-30 18:30:00,
2013-03-30 10:33:00,23.8,11.2,30.21,SSE,160,5.0,6.0,58,0.00,,---,0.00,VWS V14.01,2013-03-30 18:33:00,
2013-03-30 10:38:00,23.6,10.6,30.21,SSE,162,6.0,6.0,57,0.00,,---,0.00,VWS V14.01,2013-03-30 18:38:00,
2013-03-30 10:43:00,23.3,10.7,30.21,SSE,168,1.0,6.0,58,0.00,,---,0.00,VWS V14.01,2013-03-30 18:43:00,
2013-03-30 10:48:00,23.4,10.8,30.22,SSE,158,4.0,6.0,58,0.00,,---,0.00,VWS V14.01,2013-03-30 18:48:00,
2013-03-30 10:53:00,23.4,10.4,30.22,SE,128,4.0,6.0,57,0.00,,---,0.00,VWS V14.01,2013-03-30 18:53:00,
2013-03-30 10:58:00,23.4,10.4,30.22,SSE,153,4.0,6.0,57,0.00,,---,0.00,VWS V14.01,2013-03-30 18:58:00,
2013-03-30 11:00:00,23.4,10.4,30.22,SSE,153,2.0,6.0,57,0.00,,---,0.00,VWS V14.01,2013-03-30 19:00:00,
2013-03-30 11:03:00,23.4,10.4,30.22,SSE,154,2.0,5.0,57,0.00,,---,0.00,VWS V14.01,2013-03-30 19:03:00,
2013-03-30 11:08:00,23.4,10.4,30.22,ESE,119,1.0,5.0,57,0.00,,---,0.00,VWS V14.01,2013-03-30 19:08:00,
2013-03-30 11:13:00,23.9,10.9,30.22,SE,131,0.0,5.0,57,0.00,,---,0.00,VWS V14.01,2013-03-30 19:13:00,
2013-03-30 11:18:00,24.6,11.6,30.22,SSE,161,4.0,5.0,57,0.00,,---,0.00,VWS V14.01,2013-03-30 19:18:00,
2013-03-30 11:23:00,25.1,11.2,30.23,ESE,104,2.0,5.0,55,0.00,,---,0.00,VWS V14.01,2013-03-30 19:23:00,
2013-03-30 11:28:00,25.5,11.6,30.23,SSE,148,2.0,5.0,55,0.00,,---,0.00,VWS V14.01,2013-03-30 19:28:00,
2013-03-30 11:30:00,25.8,11.9,30.23,ESE,115,2.0,5.0,55,0.00,,---,0.00,VWS V14.01,2013-03-30 19:30:00,
2013-03-30 11:33:00,26.0,11.6,30.23,SE,145,4.0,5.0,54,0.00,,---,0.00,VWS V14.01,2013-03-30 19:33:00,
2013-03-30 11:38:00,26.2,11.4,30.23,SE,146,5.0,5.0,53,0.00,,---,0.00,VWS V14.01,2013-03-30 19:38:00,
2013-03-30 11:43:00,26.3,11.9,30.23,SE,145,2.0,5.0,54,0.00,,---,0.00,VWS V14.01,2013-03-30 19:43:00,
2013-03-30 11:48:00,26.6,11.4,30.23,SE,136,2.0,5.0,52,0.00,,---,0.00,VWS V14.01,2013-03-30 19:48:00,
2013-03-30 11:53:00,26.4,11.6,30.23,ESE,111,4.0,5.0,53,0.00,,---,0.00,VWS V14.01,2013-03-30 19:53:00,
2013-03-30 11:58:00,26.8,12.0,30.23,SE,131,5.0,5.0,53,0.00,,---,0.00,VWS V14.01,2013-03-30 19:58:00,
2013-03-30 12:00:00,26.9,11.6,30.23,SE,146,5.0,5.0,52,0.00,,---,0.00,VWS V14.01,2013-03-30 20:00:00,
2013-03-30 12:03:00,26.9,11.6,30.23,ESE,122,4.0,5.0,52,0.00,,---,0.00,VWS V14.01,2013-03-30 20:03:00,
2013-03-30 12:08:00,27.3,12.4,30.24,SE,132,1.0,5.0,53,0.00,,---,0.00,VWS V14.01,2013-03-30 20:08:00,
2013-03-30 12:13:00,27.5,12.2,30.24,SE,131,4.0,5.0,52,0.00,,---,0.00,VWS V14.01,2013-03-30 20:13:00,
2013-03-30 12:18:00,27.8,12.9,30.24,SE,128,4.0,5.0,53,0.00,,---,0.00,VWS V14.01,2013-03-30 20:18:00,
2013-03-30 12:23:00,28.2,12.9,30.24,SE,132,2.0,5.0,52,0.00,,---,0.00,VWS V14.01,2013-03-30 20:23:00,
2013-03-30 12:28:00,28.2,12.4,30.24,SE,144,4.0,6.0,51,0.00,,---,0.00,VWS V14.01,2013-03-30 20:28:00,
2013-03-30 12:30:00,28.4,12.6,30.24,SE,136,4.0,6.0,51,0.00,,---,0.00,VWS V14.01,2013-03-30 20:30:00,
2013-03-30 12:33:00,28.4,12.6,30.24,SSE,165,5.0,5.0,51,0.00,,---,0.00,VWS V14.01,2013-03-30 20:33:00,
2013-03-30 12:38:00,28.1,12.3,30.24,SSE,161,4.0,7.0,51,0.00,,---,0.00,VWS V14.01,2013-03-30 20:38:00,
2013-03-30 12:43:00,28.1,12.3,30.25,SE,137,4.0,7.0,51,0.00,,---,0.00,VWS V14.01,2013-03-30 20:43:00,
2013-03-30 12:48:00,28.3,12.9,30.25,SSE,160,5.0,7.0,52,0.00,,---,0.00,VWS V14.01,2013-03-30 20:48:00,
2013-03-30 12:53:00,28.6,12.8,30.25,SSE,164,4.0,7.0,51,0.00,,---,0.00,VWS V14.01,2013-03-30 20:53:00,
2013-03-30 12:58:00,28.7,12.9,30.25,SSE,164,4.0,7.0,51,0.00,,---,0.00,VWS V14.01,2013-03-30 20:58:00,
2013-03-30 13:00:00,28.8,12.5,30.25,ESE,119,4.0,7.0,50,0.00,,---,0.00,VWS V14.01,2013-03-30 21:00:00,
2013-03-30 13:03:00,28.8,13.0,30.25,SSE,167,6.0,6.0,51,0.00,,---,0.00,VWS V14.01,2013-03-30 21:03:00,
2013-03-30 13:08:00,28.5,12.7,30.25,SSE,156,2.0,7.0,51,0.00,,---,0.00,VWS V14.01,2013-03-30 21:08:00,
2013-03-30 13:13:00,28.8,13.0,30.25,ESE,120,4.0,7.0,51,0.00,,---,0.00,VWS V14.01,2013-03-30 21:13:00,
2013-03-30 13:18:00,28.9,12.6,30.25,SSE,163,1.0,7.0,50,0.00,,---,0.00,VWS V14.01,2013-03-30 21:18:00,
2013-03-30 13:23:00,29.2,12.9,30.25,South,175,5.0,7.0,50,0.00,,---,0.00,VWS V14.01,2013-03-30 21:23:00,
2013-03-30 13:28:00,29.2,12.4,30.25,SSE,148,4.0,7.0,49,0.00,,---,0.00,VWS V14.01,2013-03-30 21:28:00,
2013-03-30 13:30:00,29.4,13.1,30.25,SE,130,1.0,7.0,50,0.00,,---,0.00,VWS V14.01,2013-03-30 21:30:00,
2013-03-30 13:33:00,29.5,13.2,30.25,SE,130,0.0,2.0,50,0.00,,---,0.00,VWS V14.01,2013-03-30 21:33:00,
2013-03-30 13:38:00,29.8,13.4,30.25,SSE,153,0.0,6.0,50,0.00,,---,0.00,VWS V14.01,2013-03-30 21:38:00,
2013-03-30 13:43:00,30.2,13.4,30.25,SSE,159,4.0,6.0,49,0.00,,---,0.00,VWS V14.01,2013-03-30 21:43:00,
2013-03-30 13:48:00,30.6,13.7,30.25,SE,128,0.0,6.0,49,0.00,,---,0.00,VWS V14.01,2013-03-30 21:48:00,
2013-03-30 13:53:00,30.8,13.9,30.26,SE,142,0.0,6.0,49,0.00,,---,0.00,VWS V14.01,2013-03-30 21:53:00,
2013-03-30 13:58:00,31.2,14.7,30.26,SSE,147,0.0,6.0,50,0.00,,---,0.00,VWS V14.01,2013-03-30 21:58:00,
2013-03-30 14:00:00,31.5,15.0,30.26,SSE,147,1.0,6.0,50,0.00,,---,0.00,VWS V14.01,2013-03-30 22:00:00,
2013-03-30 14:03:00,31.7,14.7,30.26,SSE,149,1.0,6.0,49,0.00,,---,0.00,VWS V14.01,2013-03-30 22:03:00,
2013-03-30 14:08:00,31.7,14.7,30.26,SSE,149,0.0,6.0,49,0.00,,---,0.00,VWS V14.01,2013-03-30 22:08:00,
2013-03-30 14:13:00,32.1,14.6,30.26,SSE,149,0.0,6.0,48,0.00,,---,0.00,VWS V14.01,2013-03-30 22:13:00,
2013-03-30 14:18:00,32.2,14.7,30.26,SSE,155,2.0,6.0,48,0.00,,---,0.00,VWS V14.01,2013-03-30 22:18:00,
2013-03-30 14:23:00,32.3,14.8,30.26,South,180,0.0,6.0,48,0.00,,---,0.00,VWS V14.01,2013-03-30 22:23:00,
2013-03-30 14:28:00,32.7,15.7,30.26,SE,134,1.0,6.0,49,0.00,,---,0.00,VWS V14.01,2013-03-30 22:28:00,
2013-03-30 14:30:00,32.8,14.8,30.26,SSE,157,2.0,6.0,47,0.00,,---,0.00,VWS V14.01,2013-03-30 22:30:00,
2013-03-30 14:33:00,32.7,15.2,30.26,SSE,157,0.0,4.0,48,0.00,,---,0.00,VWS V14.01,2013-03-30 22:33:00,
2013-03-30 14:38:00,32.9,15.4,30.26,SE,126,2.0,5.0,48,0.00,,---,0.00,VWS V14.01,2013-03-30 22:38:00,
2013-03-30 14:43:00,32.7,14.7,30.26,SSE,158,1.0,5.0,47,0.00,,---,0.00,VWS V14.01,2013-03-30 22:43:00,
2013-03-30 14:48:00,32.5,14.5,30.26,SSE,163,2.0,6.0,47,0.00,,---,0.00,VWS V14.01,2013-03-30 22:48:00,
2013-03-30 14:53:00,32.7,15.2,30.26,SSE,163,0.0,6.0,48,0.00,,---,0.00,VWS V14.01,2013-03-30 22:53:00,
2013-03-30 14:58:00,33.0,15.5,30.26,SSE,163,4.0,6.0,48,0.00,,---,0.00,VWS V14.01,2013-03-30 22:58:00,
2013-03-30 15:00:00,33.3,15.3,30.26,SSE,163,5.0,6.0,47,0.00,,---,0.00,VWS V14.01,2013-03-30 23:00:00,
2013-03-30 15:03:00,33.3,14.8,30.26,SSE,165,1.0,5.0,46,0.00,,---,0.00,VWS V14.01,2013-03-30 23:03:00,
2013-03-30 15:08:00,33.4,15.8,30.26,SSE,165,0.0,5.0,48,0.00,,---,0.00,VWS V14.01,2013-03-30 23:08:00,
2013-03-30 15:13:00,33.5,14.9,30.26,SSW,208,0.0,5.0,46,0.00,,---,0.00,VWS V14.01,2013-03-30 23:13:00,
2013-03-30 15:18:00,34.0,15.4,30.26,SSW,208,0.0,5.0,46,0.00,,---,0.00,VWS V14.01,2013-03-30 23:18:00,
2013-03-30 15:23:00,34.4,16.3,30.26,South,178,0.0,5.0,47,0.00,,---,0.00,VWS V14.01,2013-03-30 23:23:00,
2013-03-30 15:28:00,34.6,16.0,30.26,South,180,0.0,5.0,46,0.00,,---,0.00,VWS V14.01,2013-03-30 23:28:00,
2013-03-30 15:30:00,34.6,15.4,30.26,South,180,2.0,5.0,45,0.00,,---,0.00,VWS V14.01,2013-03-30 23:30:00,
2013-03-30 15:33:00,34.4,15.3,30.26,South,180,1.0,2.0,45,0.00,,---,0.00,VWS V14.01,2013-03-30 23:33:00,
2013-03-30 15:38:00,34.0,15.9,30.26,South,180,1.0,2.0,47,0.00,,---,0.00,VWS V14.01,2013-03-30 23:38:00,
2013-03-30 15:43:00,33.9,15.3,30.26,South,180,1.0,2.0,46,0.00,,---,0.00,VWS V14.01,2013-03-30 23:43:00,
2013-03-30 15:48:00,33.9,15.3,30.26,South,183,1.0,3.0,46,0.00,,---,0.00,VWS V14.01,2013-03-30 23:48:00,
2013-03-30 15:53:00,34.1,15.5,30.26,South,183,0.0,3.0,46,0.00,,---,0.00,VWS V14.01,2013-03-30 23:53:00,
2013-03-30 15:58:00,34.5,15.9,30.26,South,187,2.0,4.0,46,0.00,,---,0.00,VWS V14.01,2013-03-30 23:58:00,
2013-03-30 16:00:00,34.7,16.0,30.26,South,187,2.0,4.0,46,0.00,,---,0.00,VWS V14.01,2013-03-31 00:00:00,
2013-03-30 16:03:00,34.8,16.6,30.26,South,187,1.0,2.0,47,0.00,,---,0.00,VWS V14.01,2013-03-31 00:03:00,
2013-03-30 16:08:00,35.2,16.5,30.26,South,187,0.0,2.0,46,0.00,,---,0.00,VWS V14.01,2013-03-31 00:08:00,
2013-03-30 16:13:00,35.5,16.3,30.26,South,187,1.0,2.0,45,0.00,,---,0.00,VWS V14.01,2013-03-31 00:13:00,
2013-03-30 16:18:00,35.9,16.1,30.26,South,187,1.0,2.0,44,0.00,,---,0.00,VWS V14.01,2013-03-31 00:18:00,
2013-03-30 16:23:00,35.9,16.1,30.26,South,187,1.0,2.0,44,0.00,,---,0.00,VWS V14.01,2013-03-31 00:23:00,
2013-03-30 16:28:00,35.5,15.8,30.26,South,187,3.0,4.0,44,0.00,,---,0.00,VWS V14.01,2013-03-31 00:28:00,
2013-03-30 16:30:00,35.1,15.4,30.27,South,187,0.0,4.0,44,0.00,,---,0.00,VWS V14.01,2013-03-31 00:30:00,
2013-03-30 16:33:00,35.0,15.8,30.27,South,187,0.0,2.0,45,0.00,,---,0.00,VWS V14.01,2013-03-31 00:33:00,
2013-03-30 16:38:00,35.1,16.4,30.27,South,187,1.0,3.0,46,0.00,,---,0.00,VWS V14.01,2013-03-31 00:38:00,
2013-03-30 16:43:00,35.5,16.3,30.27,South,187,0.0,3.0,45,0.00,,---,0.00,VWS V14.01,2013-03-31 00:43:00,
2013-03-30 16:48:00,35.7,15.9,30.27,South,187,3.0,3.0,44,0.00,,---,0.00,VWS V14.01,2013-03-31 00:48:00,
2013-03-30 16:53:00,35.7,16.5,30.27,South,187,1.0,3.0,45,0.00,,---,0.00,VWS V14.01,2013-03-31 00:53:00,
2013-03-30 16:58:00,35.7,16.5,30.27,South,187,1.0,3.0,45,0.00,,---,0.00,VWS V14.01,2013-03-31 00:58:00,
2013-03-30 17:00:00,35.8,16.5,30.27,South,187,1.0,3.0,45,0.00,,---,0.00,VWS V14.01,2013-03-31 01:00:00,
2013-03-30 17:03:00,35.9,16.6,30.27,South,187,0.0,1.0,45,0.00,,---,0.00,VWS V14.01,2013-03-31 01:03:00,
2013-03-30 17:08:00,36.0,16.7,30.27,South,187,0.0,2.0,45,0.00,,---,0.00,VWS V14.01,2013-03-31 01:08:00,
2013-03-30 17:13:00,36.3,17.0,30.27,South,187,1.0,2.0,45,0.00,,---,0.00,VWS V14.01,2013-03-31 01:13:00,
2013-03-30 17:18:00,36.3,17.0,30.27,South,187,1.0,2.0,45,0.00,,---,0.00,VWS V14.01,2013-03-31 01:18:00,
2013-03-30 17:23:00,36.2,16.9,30.27,South,187,0.0,2.0,45,0.00,,---,0.00,VWS V14.01,2013-03-31 01:23:00,
2013-03-30 17:28:00,36.0,16.7,30.27,South,187,0.0,2.0,45,0.00,,---,0.00,VWS V14.01,2013-03-31 01:28:00,
2013-03-30 17:30:00,35.8,16.5,30.27,South,187,0.0,3.0,45,0.00,,---,0.00,VWS V14.01,2013-03-31 01:30:00,
2013-03-30 17:33:00,35.7,17.0,30.27,South,187,2.0,2.0,46,0.00,,---,0.00,VWS V14.01,2013-03-31 01:33:00,
2013-03-30 17:38:00,35.5,16.3,30.27,South,187,0.0,2.0,45,0.00,,---,0.00,VWS V14.01,2013-03-31 01:38:00,
2013-03-30 17:43:00,35.5,16.8,30.27,South,187,0.0,2.0,46,0.00,,---,0.00,VWS V14.01,2013-03-31 01:43:00,
2013-03-30 17:48:00,35.9,17.1,30.27,South,187,0.0,2.0,46,0.00,,---,0.00,VWS V14.01,2013-03-31 01:48:00,
2013-03-30 17:53:00,36.3,17.0,30.27,South,187,0.0,3.0,45,0.00,,---,0.00,VWS V14.01,2013-03-31 01:53:00,
2013-03-30 17:58:00,36.4,17.1,30.27,South,187,3.0,3.0,45,0.00,,---,0.00,VWS V14.01,2013-03-31 01:58:00,
2013-03-30 18:00:00,36.4,17.6,30.27,South,187,2.0,3.0,46,0.00,,---,0.00,VWS V14.01,2013-03-31 02:00:00,
2013-03-30 18:03:00,36.5,17.7,30.27,South,187,0.0,2.0,46,0.00,,---,0.00,VWS V14.01,2013-03-31 02:03:00,
2013-03-30 18:08:00,36.5,17.7,30.27,South,187,2.0,2.0,46,0.00,,---,0.00,VWS V14.01,2013-03-31 02:08:00,
2013-03-30 18:13:00,36.4,17.1,30.27,South,187,0.0,2.0,45,0.00,,---,0.00,VWS V14.01,2013-03-31 02:13:00,
2013-03-30 18:18:00,36.5,17.7,30.27,South,187,0.0,2.0,46,0.00,,---,0.00,VWS V14.01,2013-03-31 02:18:00,
2013-03-30 18:23:00,36.4,17.1,30.27,South,187,1.0,3.0,45,0.00,,---,0.00,VWS V14.01,2013-03-31 02:23:00,
2013-03-30 18:28:00,36.1,17.3,30.27,South,187,0.0,3.0,46,0.00,,---,0.00,VWS V14.01,2013-03-31 02:28:00,
2013-03-30 18:30:00,35.9,17.1,30.27,South,187,0.0,3.0,46,0.00,,---,0.00,VWS V14.01,2013-03-31 02:30:00,
2013-03-30 18:33:00,35.9,17.1,30.27,South,187,0.0,0.0,46,0.00,,---,0.00,VWS V14.01,2013-03-31 02:33:00,
2013-03-30 18:38:00,35.6,17.4,30.28,South,187,0.0,1.0,47,0.00,,---,0.00,VWS V14.01,2013-03-31 02:38:00,
2013-03-30 18:43:00,35.3,17.1,30.28,South,187,0.0,2.0,47,0.00,,---,0.00,VWS V14.01,2013-03-31 02:43:00,
2013-03-30 18:48:00,35.1,16.9,30.27,South,187,1.0,2.0,47,0.00,,---,0.00,VWS V14.01,2013-03-31 02:48:00,
2013-03-30 18:53:00,35.0,16.8,30.27,South,187,0.0,2.0,47,0.00,,---,0.00,VWS V14.01,2013-03-31 02:53:00,
2013-03-30 18:58:00,35.0,16.8,30.28,South,187,0.0,2.0,47,0.00,,---,0.00,VWS V14.01,2013-03-31 02:58:00,
2013-03-30 19:00:00,35.0,16.8,30.28,South,187,0.0,2.0,47,0.00,,---,0.00,VWS V14.01,2013-03-31 03:00:00,
2013-03-30 19:03:00,35.1,17.4,30.28,South,187,0.0,0.0,48,0.00,,---,0.00,VWS V14.01,2013-03-31 03:03:00,
2013-03-30 19:08:00,35.1,16.9,30.28,South,187,0.0,1.0,47,0.00,,---,0.00,VWS V14.01,2013-03-31 03:08:00,
2013-03-30 19:13:00,35.2,17.0,30.28,South,187,0.0,1.0,47,0.00,,---,0.00,VWS V14.01,2013-03-31 03:13:00,
2013-03-30 19:18:00,35.3,17.1,30.27,South,187,0.0,1.0,47,0.00,,---,0.00,VWS V14.01,2013-03-31 03:18:00,
2013-03-30 19:23:00,35.2,17.0,30.27,South,187,0.0,1.0,47,0.00,,---,0.00,VWS V14.01,2013-03-31 03:23:00,
2013-03-30 19:28:00,35.2,17.0,30.28,South,187,0.0,1.0,47,0.00,,---,0.00,VWS V14.01,2013-03-31 03:28:00,
2013-03-30 19:30:00,35.2,17.0,30.28,South,187,0.0,1.0,47,0.00,,---,0.00,VWS V14.01,2013-03-31 03:30:00,
2013-03-30 19:33:00,35.2,17.0,30.28,South,187,0.0,1.0,47,0.00,,---,0.00,VWS V14.01,2013-03-31 03:33:00,
2013-03-30 19:38:00,35.1,16.9,30.28,South,187,0.0,1.0,47,0.00,,---,0.00,VWS V14.01,2013-03-31 03:38:00,
2013-03-30 19:43:00,35.1,16.9,30.28,South,187,0.0,1.0,47,0.00,,---,0.00,VWS V14.01,2013-03-31 03:43:00,
2013-03-30 19:48:00,35.0,16.8,30.28,South,187,0.0,1.0,47,0.00,,---,0.00,VWS V14.01,2013-03-31 03:48:00,
2013-03-30 19:53:00,34.9,16.7,30.28,South,187,0.0,2.0,47,0.00,,---,0.00,VWS V14.01,2013-03-31 03:53:00,
2013-03-30 19:58:00,34.9,17.2,30.28,South,187,0.0,2.0,48,0.00,,---,0.00,VWS V14.01,2013-03-31 03:58:00,
2013-03-30 20:00:00,34.9,17.2,30.28,South,187,0.0,2.0,48,0.00,,---,0.00,VWS V14.01,2013-03-31 04:00:00,
2013-03-30 20:05:00,34.9,17.2,30.28,South,187,0.0,1.0,48,0.00,,---,0.00,VWS V14.01,2013-03-31 04:05:00,
2013-03-30 20:10:00,34.8,17.1,30.28,South,187,0.0,1.0,48,0.00,,---,0.00,VWS V14.01,2013-03-31 04:10:00,
2013-03-30 20:15:00,34.7,17.0,30.28,South,187,0.0,1.0,48,0.00,,---,0.00,VWS V14.01,2013-03-31 04:15:00,
2013-03-30 20:20:00,34.6,16.9,30.28,South,187,0.0,1.0,48,0.00,,---,0.00,VWS V14.01,2013-03-31 04:20:00,
2013-03-30 20:25:00,34.5,16.9,30.28,South,187,1.0,1.0,48,0.00,,---,0.00,VWS V14.01,2013-03-31 04:25:00,
2013-03-30 20:30:00,34.3,16.7,30.28,South,187,0.0,1.0,48,0.00,,---,0.00,VWS V14.01,2013-03-31 04:30:00,
2013-03-30 20:35:00,34.3,16.7,30.28,South,188,1.0,2.0,48,0.00,,---,0.00,VWS V14.01,2013-03-31 04:35:00,
2013-03-30 20:40:00,34.2,17.0,30.29,South,188,1.0,2.0,49,0.00,,---,0.00,VWS V14.01,2013-03-31 04:40:00,
2013-03-30 20:45:00,34.2,17.0,30.29,South,188,0.0,2.0,49,0.00,,---,0.00,VWS V14.01,2013-03-31 04:45:00,
2013-03-30 20:50:00,34.2,17.0,30.29,South,188,0.0,2.0,49,0.00,,---,0.00,VWS V14.01,2013-03-31 04:50:00,
2013-03-30 20:55:00,34.1,17.0,30.29,South,188,0.0,2.0,49,0.00,,---,0.00,VWS V14.01,2013-03-31 04:55:00,
2013-03-30 21:00:00,34.1,17.0,30.29,South,188,0.0,2.0,49,0.00,,---,0.00,VWS V14.01,2013-03-31 05:00:00,
2013-03-30 21:05:00,34.0,16.9,30.29,South,188,0.0,0.0,49,0.00,,---,0.00,VWS V14.01,2013-03-31 05:05:00,
2013-03-30 21:10:00,34.0,16.4,30.29,South,188,0.0,0.0,48,0.00,,---,0.00,VWS V14.01,2013-03-31 05:10:00,
2013-03-30 21:15:00,33.9,16.8,30.29,South,188,0.0,1.0,49,0.00,,---,0.00,VWS V14.01,2013-03-31 05:15:00,
2013-03-30 21:20:00,33.9,16.3,30.29,South,188,0.0,1.0,48,0.00,,---,0.00,VWS V14.01,2013-03-31 05:20:00,
2013-03-30 21:25:00,33.9,16.8,30.30,South,188,0.0,2.0,49,0.00,,---,0.00,VWS V14.01,2013-03-31 05:25:00,
2013-03-30 21:30:00,33.8,16.7,30.29,South,188,0.0,2.0,49,0.00,,---,0.00,VWS V14.01,2013-03-31 05:30:00,
2013-03-30 21:35:00,33.8,16.7,30.30,South,188,0.0,0.0,49,0.00,,---,0.00,VWS V14.01,2013-03-31 05:35:00,
2013-03-30 21:40:00,33.7,16.6,30.30,South,188,0.0,1.0,49,0.00,,---,0.00,VWS V14.01,2013-03-31 05:40:00,
2013-03-30 21:45:00,33.6,16.5,30.30,South,188,0.0,1.0,49,0.00,,---,0.00,VWS V14.01,2013-03-31 05:45:00,
2013-03-30 21:50:00,33.4,16.8,30.30,South,188,0.0,1.0,50,0.00,,---,0.00,VWS V14.01,2013-03-31 05:50:00,
2013-03-30 21:55:00,33.2,16.6,30.30,South,188,0.0,1.0,50,0.00,,---,0.00,VWS V14.01,2013-03-31 05:55:00,
2013-03-30 22:00:00,33.1,16.5,30.30,South,188,0.0,1.0,50,0.00,,---,0.00,VWS V14.01,2013-03-31 06:00:00,
2013-03-30 22:05:00,33.2,16.6,30.30,South,188,0.0,0.0,50,0.00,,---,0.00,VWS V14.01,2013-03-31 06:05:00,
2013-03-30 22:10:00,33.4,16.8,30.30,South,188,0.0,0.0,50,0.00,,---,0.00,VWS V14.01,2013-03-31 06:10:00,
2013-03-30 22:15:00,33.6,17.0,30.30,South,188,0.0,1.0,50,0.00,,---,0.00,VWS V14.01,2013-03-31 06:15:00,
2013-03-30 22:20:00,33.8,17.1,30.30,South,188,0.0,1.0,50,0.00,,---,0.00,VWS V14.01,2013-03-31 06:20:00,
2013-03-30 22:25:00,33.9,17.2,30.30,South,188,0.0,1.0,50,0.00,,---,0.00,VWS V14.01,2013-03-31 06:25:00,
2013-03-30 22:30:00,33.9,16.8,30.30,South,188,0.0,1.0,49,0.00,,---,0.00,VWS V14.01,2013-03-31 06:30:00,
2013-03-30 22:35:00,33.8,17.1,30.30,South,188,0.0,0.0,50,0.00,,---,0.00,VWS V14.01,2013-03-31 06:35:00,
2013-03-30 22:40:00,33.9,17.2,30.30,South,188,0.0,0.0,50,0.00,,---,0.00,VWS V14.01,2013-03-31 06:40:00,
2013-03-30 22:45:00,33.9,17.2,30.30,South,188,0.0,1.0,50,0.00,,---,0.00,VWS V14.01,2013-03-31 06:45:00,
2013-03-30 22:50:00,33.9,16.8,30.30,South,188,1.0,1.0,49,0.00,,---,0.00,VWS V14.01,2013-03-31 06:50:00,
2013-03-30 22:55:00,33.7,16.6,30.30,South,188,0.0,2.0,49,0.00,,---,0.00,VWS V14.01,2013-03-31 06:55:00,
2013-03-30 23:00:00,33.7,16.6,30.31,South,188,0.0,2.0,49,0.00,,---,0.00,VWS V14.01,2013-03-31 07:00:00,
2013-03-30 23:05:00,33.7,16.1,30.31,South,188,1.0,2.0,48,0.00,,---,0.00,VWS V14.01,2013-03-31 07:05:00,
2013-03-30 23:10:00,33.6,16.5,30.31,South,188,1.0,2.0,49,0.00,,---,0.00,VWS V14.01,2013-03-31 07:10:00,
2013-03-30 23:15:00,33.5,16.4,30.31,South,188,0.0,2.0,49,0.00,,---,0.00,VWS V14.01,2013-03-31 07:15:00,
2013-03-30 23:20:00,33.5,16.9,30.31,South,188,0.0,2.0,50,0.00,,---,0.00,VWS V14.01,2013-03-31 07:20:00,
2013-03-30 23:25:00,33.5,16.9,30.31,South,188,0.0,2.0,50,0.00,,---,0.00,VWS V14.01,2013-03-31 07:25:00,
2013-03-30 23:30:00,33.4,16.8,30.31,South,188,0.0,2.0,50,0.00,,---,0.00,VWS V14.01,2013-03-31 07:30:00,
2013-03-30 23:35:00,33.3,16.7,30.31,South,188,0.0,1.0,50,0.00,,---,0.00,VWS V14.01,2013-03-31 07:35:00,
2013-03-30 23:40:00,33.2,16.6,30.31,South,188,0.0,2.0,50,0.00,,---,0.00,VWS V14.01,2013-03-31 07:40:00,
2013-03-30 23:45:00,33.0,16.4,30.31,South,188,0.0,2.0,50,0.00,,---,0.00,VWS V14.01,2013-03-31 07:45:00,
2013-03-30 23:50:00,32.8,16.7,30.31,South,188,1.0,2.0,51,0.00,,---,0.00,VWS V14.01,2013-03-31 07:50:00,
2013-03-30 23:55:00,32.6,16.9,30.31,South,188,0.0,2.0,52,0.00,,---,0.00,VWS V14.01,2013-03-31 07:55:00,